Location: Joffre
(52.3362°N, 113.5373°W)
Time: 08:19:02
(UTC+00:00)

Envisat - Pass Details

Date: 03 December 2021
Orbit: 764 x 766 km, 98.2° (Epoch: 17 January)

Event Time Altitude Azimuth Distance (km) Brightness Sun altitude
Rises 11:08:57 0° 28° (NNE) 3,246 6.7 -37.8°
Reaches altitude 10° 11:12:24 10° 52° (NE) 2,313 6.1 -37.3°
Maximum altitude 11:15:09 15° 85° (E) 2,007 5.8 -36.9°
Drops below altitude 10° 11:17:55 10° 118° (ESE) 2,303 6.0 -36.5°
Sets 11:21:18 0° 143° (SE) 3,222 6.5 -36.0°
